Regional Weather Roundup
Issued by NWS

Home | Current Version | Previous Version | Text Only | Print | Product List | Glossary On
Versions: 1 2 3 4 5 6 7 8 9 10 11 12 13 14 15 16 17 18 19 20 21 22 23 24 25 26 27 28 29 30 31 32 33 34 35 36 37 38 39 40 41 42 43 44 45 46 47 48 49 50
000
ASUS44 KFWD 220815
RWRTX
NORTH TEXAS HOURLY WEATHER ROUNDUP
NATIONAL WEATHER SERVICE FORT WORTH TX
300 AM CDT SAT JUL 22 2017

NOTE: "FAIR" INDICATES FEW OR NO CLOUDS BELOW 12,000 FEET WITH NO
SIGNIFICANT WEATHER AND/OR OBSTRUCTIONS TO VISIBILITY.

TXZ118-119-220900-
DALLAS/FORT WORTH METROPLEX

CITY           SKY/WX    TMP DP  RH WIND       PRES   REMARKS
DFW AIRPORT    CLEAR     85  71  63 S8        29.92F HX  90
DALLAS LOVE    PTCLDY    85  71  63 S12       29.94S HX  90
FTW MEACHAM    CLEAR     84  72  67 S10       29.93F
DAL-EXECUTIVE  CLEAR     81  72  74 SE6       29.94S
FTW-ALLIANCE   CLEAR     82  70  66 S7        29.93F
FTW-NAS-JRB    CLEAR     85  70  60 S9        29.93F
FTW-SPINKS     CLEAR     80  69  69 S6        29.95F
ARLINGTON      CLEAR     82  72  71 SE8       29.94S
GRAND PRAIRIE  CLEAR     82  69  64 SE5       29.95S
ADDISON        CLEAR     83  71  65 S9        29.96F
MESQUITE       CLEAR     76  72  89 CALM      29.95S
LANCASTER      CLEAR     78  71  81 SE3       29.95F
$$

TXZ091>094-102>105-117-120-121-131>134-220900-
NORTH CENTRAL TEXAS

CITY           SKY/WX    TMP DP  RH WIND       PRES   REMARKS
SHRMAN/DENISON CLEAR     80  71  74 S9        29.95F
GAINESVILLE    CLEAR     78  70  77 CALM      29.96S
BOWIE          CLEAR     79  69  71 SE3       29.95S
BRIDGEPORT     PTCLDY    80  68  67 S6        29.95S
DECATUR        CLEAR     82  69  65 SE7       29.95S
DENTON         CLEAR     80  72  76 SE7       29.93F
MCKINNEY       CLEAR     77  74  90 S5        29.94F
BONHAM         CLEAR     77  72  83 S7        29.95S
GREENVILLE     CLEAR     82  73  74 S6        29.95F
ROCKWALL       CLEAR     79  73  81 S13       29.95F
TERRELL        CLEAR     78  72  81 CALM      29.95F
WAXAHACHIE     CLEAR     78  72  82 SE3       29.96F
CLEBURNE       PTCLDY    81  73  78 S8        29.96F
GRANBURY       PTCLDY    83  70  64 SE7       29.95S
$$

TXZ083>090-098>101-113>116-127>130-139>142-154-155-220900-
WESTERN NORTH TEXAS

CITY           SKY/WX    TMP DP  RH WIND       PRES   REMARKS
WICHITA FALLS  CLEAR     81  67  62 S13       29.91F
WF-KICKAPOO    CLEAR     81  68  66 S8        29.94F
VERNON         CLEAR     84  59  42 S8        29.92F
ABILENE        CLEAR     79  62  56 S8        29.97R
ABILENE-DYESS  CLEAR     76  62  61 S10       29.96R
GRAHAM         CLEAR     81  67  62 SE5       29.93S
BRECKENRIDGE   CLEAR     83  62  49 SE9       29.94S
CISCO          CLEAR     75  64  69 S7        29.98S
EASTLAND       CLEAR     77  65  66 SE3       29.97R
RANGER         CLEAR     79  65  62 S8        29.97S
MINERAL WELLS  PTCLDY    80  69  69 SE10      29.93S
STEPHENVILLE   CLEAR     78  67  68 CALM      29.99S
COMANCHE       CLEAR     76  64  67 S5        29.97S
BROWNWOOD      CLEAR     79  64  61 SE7       29.97S
COLEMAN        CLEAR     79  59  50 S6        29.97S
$$

TXZ143>147-156>162-174-175-220900-
CENTRAL TEXAS

CITY           SKY/WX    TMP DP  RH WIND       PRES   REMARKS
WACO           CLEAR     83  73  72 S13       29.94S
WACO-MCGREGOR  CLEAR     80  72  76 S7        29.95S
HILLSBORO      CLEAR     81  73  75 S8        29.95S
CORSICANA      CLEAR     80  74  81 S7        29.96S
MEXIA          CLEAR     77  73  86 SE6       29.95R
HEARNE         CLEAR     77  75  91 SE3       29.97S
CAMERON        CLEAR     81  73  78 S9        29.95S
TEMPLE         CLEAR     81  72  74 S10       29.96S
KILLEEN        CLEAR     81  70  68 S7        29.96R
KILLEEN-SKYLRK CLEAR     81  72  74 S7        29.96S
FORT HOOD      CLEAR     80  71  74 S8        29.93S
HAMILTON       CLEAR     79  67  67 S6        29.99R
LAMPASAS       CLEAR     81  72  74 S5        29.96S
$$

TXZ095>097-106>112-122>126-135>138-148>153-164>167-220900-
EAST TEXAS

CITY           SKY/WX    TMP DP  RH WIND       PRES   REMARKS
PARIS            N/A     77  73  87 SE6         N/A
SULPHUR SPRNGS CLEAR     81  73  75 S6        29.97F
MOUNT PLEASANT CLEAR     79  72  78 CALM      29.96S
GILMER         CLEAR     79  73  83 CALM      29.95F
MINEOLA        CLEAR     81  73  78 SW6       29.95F
TYLER          CLEAR     80  75  84 SW7       29.95F
LONGVIEW       CLEAR     79  76  90 SW5       29.94F
MARSHALL         N/A     75  73  92 CALM      29.97F
ATHENS         CLEAR     77  72  83 CALM      29.95S
PALESTINE      CLEAR     77  74  91 SE3       29.97S
JACKSONVILLE   CLEAR     77  75  92 S5        29.99F
HENDERSON      CLEAR     75  73  94 CALM      29.97S
CENTER         SUNNY     80  79  96 CALM      29.97S FOG
NACOGDOCHES    CLEAR     75  72  88 SE5       29.94S
LUFKIN         CLEAR     76  74  93 CALM      29.96S
$$

SUPPLEMENTAL OBSERVATIONS (NWS FORT WORTH AREA)

CITY           SKY/WX    TMP DP  RH WIND       PRES   REMARKS
DENISON DAM      N/A     81  70  69 SE2         N/A
CADDO GRASSLND   N/A     81  72  74 S6          N/A
PAT MAYSE LAKE   N/A     81  75  83 SE6         N/A
LBJ GRASSLAND    N/A     81  68  65 SE6         N/A
POSSUM KINGDOM   N/A     81  64  57 SE6         N/A
GRANBURY         N/A     82  70  65 SE8         N/A
COMANCHE         N/A     75  63  64 SE7         N/A
MCGREGOR         N/A     81  72  74 S8          N/A
TEMPLE           N/A     81  72  74 S3          N/A
LAKE LIMESTONE   N/A     77  72  83 SE1         N/A
ATHENS           N/A     81  73  78 S6          N/A
$$

SUPPLEMENTAL OBSERVATIONS (NWS NORMAN AREA)

CITY           SKY/WX    TMP DP  RH WIND       PRES   REMARKS
GOODLETT         N/A     84  60  44 S10       29.93S
ODELL            N/A     82  65  56 SE10      29.93F
CROWELL          N/A     84  63  49 S9        29.93F
KNOX CITY        N/A     83  60  45 SE10      29.94S
SEYMOUR          N/A     83  62  47 SE12      29.93F
MILLERS CREEK    N/A     82  64  54 SE12        N/A
$$

SUPPLEMENTAL OBSERVATIONS (NWS SAN ANGELO AREA)

CITY           SKY/WX    TMP DP  RH WIND       PRES   REMARKS
WEINERT          N/A     82  64  53 SE10      29.94F
HASKELL          N/A     82  60  46 SE6       29.95S
THROCKMORTON     N/A     77  65  67 SE6       29.95F
STAMFORD         N/A     81  62  52 S6        29.95F
CLYDE            N/A     78  63  60 SE8       30.00S
HAMBY            N/A     82  61  47 S9          N/A
IVIE RESERVOIR   N/A     79  59  50 SE8         N/A
COLORADO BEND    N/A     81  66  61 S7          N/A
$$

SUPPLEMENTAL OBSERVATIONS (NWS SHREVEPORT AREA)

CITY           SKY/WX    TMP DP  RH WIND       PRES   REMARKS
CLARKSVILLE      N/A     77  73  88 CALM        N/A
TEXARKANA        N/A     75  73  94 CALM        N/A
LINDEN           N/A     79  73  83 CALM        N/A
CADDO LAKE       N/A     73  72  94 CALM        N/A
GILMER           N/A     79  72  78 S1          N/A
HENDERSON        N/A     75  72  88 CALM        N/A
LUFKIN           N/A     75  72  88 MISG        N/A
N SABINE NF      N/A     75  73  94 MISG        N/A
S SABINE NF      N/A     75  72  88 CALM        N/A
$$

SUPPLEMENTAL OBSERVATIONS ARE A COLLECTION OF AUTOMATED INSTRUMENTS
THAT ARE MAINTAINED BY A VARIETY OF FEDERAL AND STATE AGENCIES.
CERTAIN ELEMENTS...SUCH AS HUMIDITY VALUES AND SUSTAINED WIND
SPEEDS...MAY BE APPROXIMATED.





USA.gov is the U.S. government's official web portal to all federal, state and local government web resources and services.